Satellite: HUBBLE
Catalog number: 20580
Epoch time:      06136.69174276
Element set:     610
Inclination:      028.4681 deg
RA of node:       255.2014 deg
Eccentricity:    0.0003961
Arg of perigee:   209.9510 deg
Mean anomaly:     150.0777 deg
Mean motion:   15.00035601 rev/day
Decay rate:       3.77e-06 rev/day^2
Epoch rev:           68036
Checksum:              270

Satellite: UARS
Catalog number: 21701
Epoch time:      06136.71186761
Element set:    0772
Inclination:      056.9761 deg
RA of node:       228.0928 deg
Eccentricity:    0.0107994
Arg of perigee:   146.6448 deg
Mean anomaly:     214.1454 deg
Mean motion:   15.43503230 rev/day
Decay rate:      6.566e-05 rev/day^2
Epoch rev:           80444
Checksum:              306

Satellite: PO-34
Catalog number: 25520
Epoch time:      06137.81672279
Element set:     467
Inclination:      028.4604 deg
RA of node:       234.3231 deg
Eccentricity:    0.0005188
Arg of perigee:   266.9292 deg
Mean anomaly:     093.0713 deg
Mean motion:   15.16708944 rev/day
Decay rate:       5.69e-06 rev/day^2
Epoch rev:           41743
Checksum:              314

Satellite: ISS
Catalog number: 25544
Epoch time:      06137.93801944
Element set:     954
Inclination:      051.6373 deg
RA of node:       343.2168 deg
Eccentricity:    0.0009167
Arg of perigee:   211.8478 deg
Mean anomaly:     288.4046 deg
Mean motion:   15.75385832 rev/day
Decay rate:     1.2219e-04 rev/day^2
Epoch rev:           42839
Checksum:              326

Satellite: OO-38
Catalog number: 26063
Epoch time:      06136.72483350
Element set:    0621
Inclination:      100.1888 deg
RA of node:       062.1027 deg
Eccentricity:    0.0036932
Arg of perigee:   195.3772 deg
Mean anomaly:     164.6292 deg
Mean motion:   14.35765309 rev/day
Decay rate:        7.6e-07 rev/day^2
Epoch rev:           33016
Checksum:              296

Satellite: NO-45
Catalog number: 26932
Epoch time:      06136.88106144
Element set:     315
Inclination:      067.0559 deg
RA of node:       088.0132 deg
Eccentricity:    0.0008822
Arg of perigee:   267.5813 deg
Mean anomaly:     092.4313 deg
Mean motion:   14.29524525 rev/day
Decay rate:       -3.5e-07 rev/day^2
Epoch rev:           24149
Checksum:              295

Satellite: UWE-1
Catalog number: 28892
Epoch time:      06136.72577692
Element set:    0453
Inclination:      098.1666 deg
RA of node:       035.4469 deg
Eccentricity:    0.0016342
Arg of perigee:   270.4415 deg
Mean anomaly:     089.4915 deg
Mean motion:   14.59349939 rev/day
Decay rate:       2.86e-06 rev/day^2
Epoch rev:           02938
Checksum:              349

Satellite: CO-58
Catalog number: 28895
Epoch time:      06136.71809708
Element set:    0436
Inclination:      098.1696 deg
RA of node:       035.5083 deg
Eccentricity:    0.0016735
Arg of perigee:   269.9300 deg
Mean anomaly:     089.9999 deg
Mean motion:   14.59404272 rev/day
Decay rate:       2.73e-06 rev/day^2
Epoch rev:           02926
Checksum:              360

Satellite: NCUBE2
Catalog number: 28897
Epoch time:      06136.63015855
Element set:    0069
Inclination:      098.1666 deg
RA of node:       035.4115 deg
Eccentricity:    0.0016349
Arg of perigee:   274.0455 deg
Mean anomaly:     085.8874 deg
Mean motion:   14.59558441 rev/day
Decay rate:       2.48e-06 rev/day^2
Epoch rev:           02152
Checksum:              324

/EX




----
Via the keps mailing list at AMSAT.ORG courtesy of AMSAT-NA.
To unsubscribe, send "unsubscribe keps" to Majordomo@amsat.org

--- ViaMAIL!/WC v1.60d
 * Origin: Chowdanet (401-724-4410) telnet://chowdanet.com  (1:323/120)